カタログに戻る

FENGYUN 1C DEB

運用中PO
NORAD 36148·DEBRIS·🇨🇳 China

打ち上げ May 10, 1999 から Taiyuan Satellite Launch Center

Loading…

次のパス (今後24時間)

TLE

経年Source: Space-Track

元期: Sep 9, 2026, 18:22 UTC

1 36148U 99025DRV 26252.76539132  .00001693  00000-0  10944-2 0  9999
2 36148  98.4164  81.8362 0276625 325.2702  33.0666 13.87014988939995

AllMySatでFENGYUN 1C DEBをリアルタイム追跡

Download on the App Store